Regional Weather Roundup
Issued by NWS

Home | Current Version | Previous Version | Text Only | Print | Product List | Glossary On
Versions: 1 2 3 4 5 6 7 8 9 10 11 12 13 14 15 16 17 18 19 20 21 22 23 24 25 26 27 28 29 30 31 32 33 34 35 36 37 38 39 40 41 42 43 44 45 46 47 48 49 50
849
ASUS44 KLIX 202305
RWRLA
LOUISIANA WEATHER ROUNDUP
NATIONAL WEATHER SERVICE NEW ORLEANS LA
600 PM CDT SAT SEP 20 2014

NOTE: "FAIR" INDICATES FEW OR NO CLOUDS BELOW 12,000 FEET WITH NO
      SIGNIFICANT WEATHER AND/OR OBSTRUCTIONS TO VISIBILITY.
      SKY/WX - SKY CONDITION AND SIGNIFICANT WEATHER.
      TMP - AIR TEMPERATURE.    DP   - DEWPOINT TEMPERATURE.
      RH  - RELATIVE HUMIDITY.  PRES - PRESSURE.
      HX  - HEAT INDEX.         WCI  - WIND CHILL INDEX.

*  THESE STATIONS ARE NOT NWS OR FAA STATIONS AND ARE NOT UNDER
   NWS QUALITY CONTROL.

LAZ040-048-061>063-065-066-069-210000-
SOUTHEAST LOUISIANA

CITY           SKY/WX    TMP DP  RH WIND       PRES   REMARKS
N.O. AUDUBON   NOT AVBL
N.O. INTL ARPT MOSUNNY   86  67  52 E8        29.93R
N.O. LAKEFRONT SUNNY     83  70  64 E14       29.93S
N.O. DOWNTOWN* FAIR      84  64  51 E7        29.93S
SLIDELL        SUNNY     85  70  60 SE6       29.93S
BATON ROUGE    SUNNY     86  68  54 NE7       29.93F
BOOTHVILLE     MOSUNNY   82  71  69 E15G22    29.93S
BELLE CHASSE   MOSUNNY   84  67  56 E9        29.92S
BOGALUSA*      FAIR      87  66  49 NE5       29.95S
GALLIANO*      NOT AVBL
NEW ROADS*     FAIR      86  67  53 NE5       29.94S
GONZALES*      FAIR      86  70  58 NE3       29.92S
HAMMOND*       SUNNY     88  64  45 E3        29.95S
HOUMA*         MOSUNNY   84  46  26 NE10      29.93S
PORT FOURCHON* CLEAR     84  72  65 E14G23    29.95R

$$

LAZ041-044-053-054-210000-
SOUTHWEST LOUISIANA

CITY           SKY/WX    TMP DP  RH WIND       PRES   REMARKS
LAKE CHARLES   MOSUNNY   87  69  54 E8        29.91S
LAFAYETTE      SUNNY     86  69  56 E3        29.93S
PATTERSON      SUNNY     84  70  61 NE12      29.95S
SALT POINT       N/A     88  71  57 VRB6      29.91S
NEW IBERIA     SUNNY     87  66  49 E12       29.93S
CHENAULT AIRPK SUNNY     86  70  58 E9G16     29.92

$$

LAZ027-028-210000-
CENTRAL LOUISIANA

CITY           SKY/WX    TMP DP  RH WIND       PRES   REMARKS
FORT POLK      SUNNY     86  66  51 E6        29.94F
ALEXANDRIA INT SUNNY     87  67  51 E3        29.92F
ALEXANDRIA     SUNNY     88  68  51 E5        29.94F

$$

LAZ001-002-210000-
NORTHWEST LOUISIANA

CITY           SKY/WX    TMP DP  RH WIND       PRES   REMARKS
SHREVEPORT     MOSUNNY   90  62  39 E6        29.93F
BARKSDALE AFB  SUNNY     91  62  38 S6        29.94F
DTN SHREVEPORT MOSUNNY   89  63  41 SE6       29.94S

$$

LAZ014-016-210000-
NORTHEAST LOUISIANA

CITY           SKY/WX    TMP DP  RH WIND       PRES   REMARKS
MONROE         MOSUNNY   81  68  64 SW3       29.95F
TALLULAH       SUNNY     89  65  44 NE7       29.94F

$$




USA.gov is the U.S. government's official web portal to all federal, state and local government web resources and services.